Wind_Speed
17 19 21 22 24 25 26 28 30 32 35 38 38 38 39 41 41 41 41 41 41 41 40 39 38 37 37 37 36 36 34 32 32 31 31 30 30 29 27 25 24 24 24 25
17 19 19 21 24 26 28 30 32 34 36 38 39 39 41 40 41 42 41 42 43 42 41 41 40 39 39 40 39 39 39 37 36 35 35 35 35 33 32 29 27 26 27 27
17 20 21 23 26 27 28 31 33 35 35 37 38 39 39 40 39 41 40 41 42 41 41 40 40 39 39 39 40 39 39 39 38 37 37 37 37 37 35 34 32 30 29 30
19 19 21 24 27 27 28 31 33 34 36 36 36 36 32 37 40 41 39 40 40 39 38 38 37 37 37 37 38 38 38 39 38 38 37 38 38 39 38 37 36 34 33 32
20 20 21 23 25 27 29 31 32 33 34 34 32 32 32 34 37 38 37 37 36 35 35 35 34 33 34 34 34 35 35 36 37 37 37 38 39 40 39 39 40 38 37 36
18 18 20 22 25 28 30 30 30 30 28 26 24 23 30 34 37 38 37 36 34 33 34 33 32 32 32 33 33 33 34 35 36 37 37 37 39 40 41 41 41 40 40 40
20 20 22 23 24 26 27 27 26 21 16 17 18 22 28 33 36 37 37 36 35 35 34 33 33 32 33 33 33 33 33 34 35 36 37 38 39 40 41 41 42 43 43 42
18 21 22 23 23 25 24 24 23 19 14 13 15 19 21 25 29 33 36 36 35 35 33 32 32 32 32 33 32 33 34 35 36 36 37 38 38 40 40 40 41 42 41 39
18 19 19 21 22 23 22 21 19 16 12 11 12 16 19 21 22 23 26 30 31 30 30 31 31 30 30 31 31 31 32 33 34 35 35 36 37 37 38 38 40 39 39 37
18 17 18 20 22 22 21 21 18 14 11 9 9 12 14 15 18 18 19 19 21 23 24 26 28 28 28 29 29 29 30 30 30 30 31 31 32 33 34 34 35 36 35 34
18 18 19 19 21 22 20 20 18 15 12 9 9 11 13 14 13 13 12 12 13 14 15 16 19 22 23 24 24 25 25 25 25 25 25 26 27 27 27 27 27 28 27 26
19 18 17 18 19 21 20 19 18 17 16 14 12 13 13 12 11 8 6 5 7 9 11 11 12 13 14 16 17 17 18 18 18 18 18 19 19 19 18 17 16 15 15 13
19 19 20 21 21 20 20 20 19 18 17 16 16 16 15 13 11 8 4 2 2 2 3 2 3 4 5 7 7 7 8 8 9 8 9 9 8 8 8 7 6 5 6 6
19 20 21 20 20 18 19 20 21 21 20 19 19 18 18 15 13 11 9 8 8 7 6 5 6 7 7 6 4 3 4 5 4 3 2 1 1 1 1 1 2 3 4 6
19 20 20 19 19 19 20 21 22 22 22 21 22 22 21 19 18 18 16 14 14 13 12 11 11 11 11 12 12 11 10 9 9 8 7 6 5 5 5 5 5 5 6 7
19 19 19 20 20 19 20 21 22 22 23 23 23 23 22 23 23 23 22 20 18 18 18 17 16 15 14 14 14 13 13 11 10 9 9 8 7 7 7 6 6 8 9 11
19 20 21 21 19 19 21 21 20 20 21 22 22 22 22 22 23 23 23 23 21 21 20 19 18 17 16 15 15 13 13 12 11 10 10 9 9 9 9 9 10 11 12 13
18 20 20 20 20 21 20 19 19 19 20 20 21 22 21 21 21 22 22 21 21 20 19 18 17 16 15 15 14 13 12 12 11 11 11 11 11 11 11 12 12 13 14 15
17 18 20 20 20 19 18 17 17 17 18 19 20 20 20 20 20 21 21 20 20 19 18 18 17 16 16 15 15 14 14 13 13 13 13 13 13 12 13 13 13 14 14 15
17 17 18 19 19 19 17 16 15 16 17 17 18 18 19 19 20 20 20 19 19 18 18 17 17 17 17 17 16 16 15 15 15 15 15 15 14 14 14 14 14 14 14 14
17 17 17 18 17 17 17 15 14 15 16 16 16 17 17 18 19 19 19 18 18 18 18 17 17 17 17 17 17 17 17 17 17 17 17 17 17 16 16 16 16 16 16 15
16 17 17 17 17 16 16 15 14 14 14 14 15 15 15 16 17 17 17 17 17 17 17 17 17 17 17 17 18 18 18 19 19 20 20 20 19 18 18 18 18 18 18 17
15 16 17 17 16 16 16 16 15 14 13 13 13 13 14 14 15 16 16 16 17 17 17 17 17 17 17 17 18 18 19 19 20 21 21 21 21 20 20 20 20 19 19 18
13 14 15 16 16 16 15 15 15 14 13 12 12 12 12 13 14 14 14 15 15 16 16 17 17 17 17 17 17 18 18 18 19 20 21 22 22 22 22 22 21 21 21 20
11 12 13 14 16 16 15 15 15 14 13 12 12 12 11 11 12 12 13 13 14 15 15 16 16 16 16 17 17 17 17 18 19 20 21 22 22 23 23 23 22 22 22 22
9 10 11 12 14 15 16 15 15 15 13 11 11 11 10 10 10 10 11 11 12 13 14 14 14 15 15 15 16 16 16 17 18 19 20 21 21 22 22 23 23 23 23 24
Wind_Direction
279 278 280 283 283 281 279 276 273 270 271 272 274 276 276 275 275 272 271 271 270 268 268 266 266 266 267 268 269 271 273 274 275 277 277 277 278 279 280 283 285 282 280 278
288 286 292 291 288 285 284 281 278 275 275 277 277 276 277 276 274 273 271 270 268 268 267 267 266 265 265 266 267 268 270 271 272 272 273 275 276 277 278 280 282 282 282 281
295 302 304 298 293 292 290 285 284 284 282 280 279 277 277 275 272 271 271 269 269 268 266 266 265 264 263 263 264 265 267 269 269 269 269 271 274 276 277 278 278 280 284 285
303 309 306 302 299 300 296 293 293 290 286 281 277 275 271 271 270 269 269 268 268 266 265 264 264 262 261 261 262 264 265 266 268 268 268 269 273 274 275 278 279 282 283 286
316 319 315 311 309 306 303 299 297 294 290 284 277 269 263 264 264 263 264 265 264 265 264 263 262 261 260 259 260 261 262 264 266 267 268 269 270 271 272 275 278 278 281 283
322 322 321 319 317 314 312 308 305 300 295 287 280 267 260 256 257 257 259 261 260 263 263 263 260 259 258 258 259 260 261 263 264 267 268 269 269 269 272 273 275 277 281 283
330 332 330 328 326 325 322 321 320 314 300 286 273 258 258 257 254 255 256 258 259 261 261 260 258 257 257 258 259 260 262 263 264 266 268 269 269 268 270 271 273 276 279 281
334 334 334 332 332 332 333 332 329 325 307 283 267 262 262 260 260 259 259 261 262 262 260 259 258 257 257 258 258 259 261 263 265 266 267 268 269 268 268 269 271 274 278 280
342 341 341 340 340 344 346 346 343 336 325 301 283 273 271 271 271 267 263 260 261 262 259 257 256 256 256 256 258 259 262 264 266 268 268 268 268 269 269 269 272 274 275 277
352 350 351 353 355 356 357 358 356 355 350 335 309 300 301 293 288 284 283 272 263 262 261 259 257 255 254 255 257 259 262 265 266 267 266 267 268 269 268 269 268 270 271 273
3 2 2 3 3 5 7 8 12 14 6 350 334 331 329 318 307 298 292 281 269 266 266 263 260 257 257 256 257 258 261 263 263 264 265 267 267 266 267 268 268 268 266 263
12 10 13 14 12 14 17 18 20 23 23 16 4 355 342 338 337 331 306 278 274 271 270 268 268 264 257 255 257 258 258 260 261 263 265 267 263 262 264 263 259 256 249 247
16 15 16 18 17 18 20 23 27 30 28 27 27 24 18 12 10 12 13 355 316 284 243 278 285 252 245 242 242 238 243 248 252 251 249 249 251 254 252 248 240 238 240 241
18 21 21 18 18 21 25 30 32 31 31 35 36 35 34 33 35 38 48 58 70 71 82 87 84 93 100 104 122 132 124 133 140 136 138 175 218 264 254 267 287 280 272 259
22 26 25 26 28 30 33 37 38 38 39 43 45 44 43 45 50 52 59 61 63 67 70 74 78 80 86 84 84 84 80 80 78 70 60 53 40 26 10 338 323 312 299 285
25 27 30 35 33 33 37 39 40 41 44 47 49 49 50 52 54 56 58 59 61 68 69 69 71 76 75 73 70 68 64 60 58 50 42 33 22 10 355 337 321 311 300 292
29 29 32 35 34 36 40 40 41 42 44 47 49 50 52 54 55 57 58 58 58 59 61 61 63 66 65 65 62 60 57 54 49 43 35 25 12 358 345 334 323 315 307 300
31 32 33 35 38 39 37 39 41 41 44 47 49 50 51 53 55 56 56 56 55 56 57 56 56 56 57 56 55 52 49 45 40 33 25 15 4 354 346 338 329 320 312 305
33 33 32 34 38 39 36 37 39 40 42 44 45 46 48 51 53 53 52 51 51 50 50 50 51 51 52 52 51 48 45 41 35 29 21 12 6 0 355 349 342 335 327 319
33 32 31 31 35 36 34 33 35 37 41 40 41 42 44 45 46 47 47 46 45 47 48 48 48 49 50 50 49 47 43 39 34 28 23 19 15 10 6 2 356 351 345 338
31 30 28 28 30 32 30 31 32 34 36 36 37 38 39 40 42 43 44 43 44 45 46 46 46 48 50 50 49 47 44 40 35 31 28 25 23 20 16 12 8 4 360 355
28 28 27 26 26 27 25 26 29 30 30 31 32 34 35 37 40 42 42 43 45 46 47 47 48 49 51 51 49 47 45 42 39 36 33 31 28 26 22 19 16 14 12 8
25 26 26 26 25 24 24 24 25 25 26 26 27 30 33 36 39 41 43 44 46 47 48 50 50 51 51 51 49 47 46 44 41 38 36 34 32 30 27 25 24 23 21 19
21 22 22 22 22 21 21 21 22 23 24 24 25 27 31 36 39 42 44 45 48 48 49 50 52 53 53 51 49 48 47 44 41 38 36 35 35 34 32 31 31 30 29 27
12 15 16 17 18 18 19 18 18 20 22 24 24 25 28 33 39 42 45 48 49 49 50 51 52 53 53 51 48 47 45 43 40 38 37 36 36 35 35 34 34 34 32 30
356 3 7 11 13 15 16 15 15 18 21 22 22 23 28 32 37 42 45 48 50 50 50 50 51 51 49 46 45 43 41 39 38 37 36 36 36 35 35 35 35 35 34 33
Height
5877 5877 5874 5874 5873 5872 5870 5869 5869 5868 5865 5864 5864 5863 5861 5860 5861 5861 5862 5861 5861 5863 5864 5865 5867 5868 5868 5869 5870 5870 5870 5872 5873 5873 5873 5872 5872 5872 5873 5873 5873 5872 5872 5872
5873 5872 5871 5869 5867 5866 5864 5862 5860 5859 5857 5856 5855 5855 5852 5851 5851 5851 5851 5851 5850 5852 5854 5855 5858 5859 5860 5861 5861 5862 5863 5864 5865 5866 5865 5863 5865 5865 5866 5866 5866 5866 5866 5866
5870 5868 5866 5864 5861 5859 5857 5853 5852 5851 5849 5847 5845 5845 5844 5841 5839 5839 5840 5840 5840 5842 5843 5845 5847 5849 5850 5851 5852 5853 5854 5855 5856 5857 5857 5854 5856 5857 5857 5857 5858 5858 5858 5858
5866 5864 5861 5858 5855 5852 5849 5845 5843 5840 5838 5837 5836 5835 5835 5829 5828 5827 5828 5828 5829 5831 5833 5834 5837 5838 5840 5841 5843 5844 5845 5846 5847 5848 5849 5849 5849 5848 5848 5849 5849 5850 5851 5851
5861 5859 5856 5852 5849 5845 5841 5837 5834 5830 5827 5825 5825 5824 5824 5820 5818 5818 5818 5818 5819 5821 5823 5825 5827 5828 5830 5832 5834 5835 5836 5838 5839 5839 5841 5841 5841 5840 5839 5841 5841 5841 5842 5843
5858 5855 5851 5847 5843 5838 5833 5829 5825 5820 5816 5815 5815 5815 5812 5810 5809 5809 5809 5809 5809 5811 5813 5816 5817 5819 5821 5823 5824 5826 5827 5829 5830 5831 5832 5832 5832 5832 5832 5833 5833 5833 5833 5834
5854 5850 5846 5842 5838 5833 5827 5822 5817 5813 5810 5809 5807 5806 5803 5801 5800 5799 5800 5800 5800 5802 5804 5807 5808 5810 5812 5813 5815 5817 5819 5820 5821 5822 5823 5824 5824 5824 5825 5825 5825 5825 5825 5826
5853 5848 5843 5838 5834 5828 5822 5817 5812 5808 5805 5803 5801 5799 5797 5793 5792 5792 5791 5791 5792 5793 5795 5797 5799 5801 5802 5804 5806 5808 5810 5811 5812 5813 5814 5815 5815 5816 5816 5816 5816 5816 5817 5817
5850 5846 5840 5835 5830 5825 5819 5814 5809 5805 5801 5799 5797 5794 5791 5788 5786 5784 5784 5785 5786 5786 5787 5789 5790 5792 5794 5796 5798 5799 5801 5803 5804 5805 5806 5806 5807 5807 5807 5807 5808 5809 5809 5809
5848 5844 5839 5834 5829 5824 5818 5812 5808 5803 5800 5797 5795 5791 5788 5786 5783 5782 5781 5780 5780 5780 5781 5782 5783 5784 5786 5788 5790 5792 5793 5795 5796 5797 5797 5798 5798 5798 5799 5799 5800 5800 5800 5800
5847 5843 5839 5834 5828 5823 5818 5813 5807 5803 5800 5797 5794 5793 5787 5784 5782 5780 5778 5778 5777 5777 5777 5777 5778 5779 5780 5782 5784 5785 5787 5788 5789 5790 5790 5791 5791 5791 5792 5792 5792 5792 5793 5794
5848 5844 5839 5835 5830 5824 5819 5814 5809 5806 5802 5798 5795 5795 5788 5784 5781 5779 5777 5776 5776 5775 5775 5775 5775 5776 5777 5778 5780 5781 5782 5784 5784 5785 5786 5786 5786 5787 5787 5787 5787 5787 5788 5789
5849 5845 5839 5835 5832 5827 5822 5816 5812 5808 5805 5801 5797 5796 5789 5786 5782 5780 5778 5777 5776 5775 5775 5775 5775 5775 5776 5776 5778 5779 5780 5781 5782 5782 5782 5783 5784 5784 5785 5785 5785 5785 5786 5787
5850 5845 5841 5838 5833 5828 5824 5819 5815 5812 5808 5804 5800 5797 5793 5789 5786 5784 5781 5780 5778 5777 5776 5776 5776 5776 5777 5777 5778 5779 5780 5780 5781 5782 5782 5782 5783 5783 5783 5783 5783 5784 5785 5785
5852 5847 5843 5839 5835 5831 5827 5823 5819 5816 5812 5808 5805 5801 5798 5794 5791 5789 5786 5784 5783 5782 5781 5780 5780 5779 5780 5780 5781 5781 5782 5782 5782 5783 5783 5783 5783 5783 5783 5783 5783 5783 5783 5783
5854 5850 5846 5841 5838 5834 5830 5827 5823 5820 5817 5813 5810 5807 5803 5800 5797 5794 5792 5790 5788 5787 5786 5786 5785 5784 5784 5784 5784 5785 5785 5785 5785 5785 5784 5784 5784 5783 5783 5782 5782 5781 5781 5781
5856 5852 5848 5844 5841 5838 5834 5831 5828 5825 5822 5818 5815 5813 5809 5806 5804 5801 5799 5797 5795 5793 5792 5791 5790 5790 5789 5789 5789 5788 5788 5788 5787 5787 5786 5785 5784 5783 5782 5781 5780 5779 5778 5777
5859 5855 5851 5848 5845 5841 5841 5835 5832 5830 5827 5823 5820 5818 5815 5812 5809 5806 5804 5802 5801 5799 5798 5796 5795 5794 5793 5792 5792 5791 5790 5790 5789 5788 5786 5785 5784 5783 5781 5779 5777 5776 5774 5773
5861 5858 5854 5851 5847 5845 5843 5839 5837 5834 5831 5828 5825 5822 5820 5817 5814 5812 5809 5807 5805 5804 5802 5800 5799 5798 5796 5795 5794 5793 5792 5791 5790 5788 5787 5785 5783 5781 5779 5777 5775 5773 5771 5768
5864 5861 5858 5854 5851 5848 5847 5843 5840 5839 5835 5832 5829 5827 5824 5821 5819 5817 5814 5811 5809 5807 5806 5804 5803 5801 5800 5798 5797 5796 5794 5793 5791 5790 5788 5786 5783 5781 5778 5776 5773 5771 5768 5765
5867 5864 5861 5857 5854 5851 5849 5846 5844 5843 5840 5836 5833 5831 5828 5825 5823 5821 5818 5816 5814 5811 5810 5808 5806 5805 5803 5802 5800 5799 5797 5795 5793 5791 5789 5786 5784 5781 5778 5775 5772 5769 5766 5763
5869 5866 5863 5860 5857 5856 5851 5849 5847 5845 5842 5839 5837 5835 5832 5830 5827 5825 5822 5820 5818 5816 5814 5812 5810 5808 5807 5805 5803 5802 5800 5798 5796 5794 5791 5788 5785 5782 5779 5776 5772 5769 5765 5762
5871 5869 5866 5864 5862 5858 5854 5852 5849 5846 5844 5842 5840 5838 5835 5833 5831 5829 5826 5824 5822 5820 5818 5816 5814 5813 5811 5809 5807 5806 5804 5802 5800 5797 5794 5791 5788 5785 5781 5777 5774 5770 5767 5763
5873 5870 5868 5865 5862 5859 5857 5854 5851 5849 5846 5844 5842 5840 5838 5836 5834 5832 5830 5828 5826 5825 5823 5821 5819 5817 5815 5814 5812 5810 5808 5806 5803 5801 5798 5795 5791 5788 5784 5780 5776 5773 5769 5765
5874 5872 5870 5867 5865 5861 5859 5856 5853 5851 5848 5846 5844 5842 5840 5839 5837 5835 5834 5832 5830 5829 5827 5825 5823 5821 5820 5818 5816 5814 5812 5810 5807 5805 5802 5798 5795 5791 5788 5784 5780 5776 5772 5768
5874 5873 5871 5869 5867 5864 5861 5858 5855 5852 5850 5848 5846 5844 5842 5841 5839 5838 5837 5835 5834 5832 5831 5829 5827 5826 5824 5822 5820 5818 5815 5813 5811 5808 5805 5802 5799 5796 5792 5788 5784 5781 5777 5772